Weather History for Fort Lauderdale, FL

Change the Weather History Date:

Tuesday, August 20, 2013

  Actual Average Record
Temperature  
Mean Temperature 86 °F -  
Max Temperature 91 °F 92 °F 97 °F (1987)
Min Temperature 81 °F 75 °F 66 °F (1956)
Cooling Degree Days 21    
Growing Degree Days 36 (Base 50)    
Moisture  
Dew Point 74 °F    
Average Humidity 67    
Maximum Humidity 82    
Minimum Humidity 55    
Precipitation  
Precipitation 0.00 in - - ()
Sea Level Pressure  
Sea Level Pressure 30.03 in    
Wind  
Wind Speed 11 mph (East)    
Max Wind Speed 20 mph    
Max Gust Speed 26 mph    
Visibility 10 miles    
Events Rain    
Averages and records for this station are not official NWS values.
T = Trace of Precipitation, MM = Missing Value Source: NWS Daily Summary

Daily Weather History Graph

Daily Weather History Graph

Search for Another Location

Airport:

Trip Planner

Search our weather history database for the weather conditions in past years. The results will help you decide how hot, cold, wet, or windy it might be!

Date:

Astronomy

Aug. 20, 2013 Rise Set
Actual Time 6:55 AM EDT 7:52 PM EDT
Civil Twilight 6:31 AM EDT 8:15 PM EDT
Nautical Twilight 6:03 AM EDT 8:44 PM EDT
Astronomical Twilight 5:34 AM EDT 9:12 PM EDT
Moon 7:28 PM EDT (8/20) 6:21 AM EDT (8/20)
Length of Visible Light 13h 44m
Length of Day
12h 56m
Full, 100% of the Moon is Illuminated
Aug 20
Full
Aug 20
Full
Aug 28
Last Quarter
Sep 5
New
Sep 12
First Quarter

Hourly Weather History & Observations

Time (EDT) Temp. Heat Index Dew Point Humidity Pressure Visibility Wind Dir Wind Speed Gust Speed Precip Events Conditions
12:53 AM 82.9 °F 89.4 °F 73.9 °F 74% 30.04 in 10.0 mi East 8.1 mph - N/A   Clear
1:53 AM 82.9 °F 89.4 °F 73.9 °F 74% 30.03 in 10.0 mi East 9.2 mph - N/A   Scattered Clouds
2:53 AM 82.9 °F 89.4 °F 73.9 °F 74% 30.01 in 10.0 mi East 12.7 mph - N/A   Clear
3:53 AM 82.0 °F 86.3 °F 71.1 °F 69% 30.01 in 10.0 mi East 6.9 mph - N/A   Partly Cloudy
4:53 AM 81.0 °F 86.2 °F 73.9 °F 79% 30.00 in 10.0 mi East 11.5 mph - 0.00 in Rain Light Rain
5:53 AM 81.0 °F 86.2 °F 73.9 °F 79% 30.01 in 10.0 mi East 6.9 mph - N/A   Clear
6:53 AM 81.0 °F 86.7 °F 75.0 °F 82% 30.02 in 10.0 mi East 8.1 mph - N/A   Scattered Clouds
7:53 AM 82.9 °F 88.8 °F 73.0 °F 72% 30.04 in 10.0 mi East 8.1 mph - N/A   Scattered Clouds
8:53 AM 84.0 °F 91.2 °F 73.9 °F 72% 30.04 in 10.0 mi ESE 11.5 mph - N/A   Scattered Clouds
9:53 AM 87.1 °F 94.5 °F 73.0 °F 63% 30.06 in 10.0 mi East 11.5 mph - N/A   Scattered Clouds
10:53 AM 87.1 °F 95.4 °F 73.9 °F 65% 30.06 in 10.0 mi East 16.1 mph - N/A   Scattered Clouds
11:38 AM 89.6 °F 98.2 °F 73.4 °F 59% 30.05 in 10.0 mi East 19.6 mph - N/A   Mostly Cloudy
11:51 AM 89.6 °F 98.2 °F 73.4 °F 59% 30.05 in 10.0 mi East 16.1 mph 26.5 mph N/A   Mostly Cloudy
11:53 AM 90.0 °F 97.9 °F 73.0 °F 57% 30.06 in 10.0 mi East 15.0 mph 23.0 mph N/A   Scattered Clouds
12:53 PM 91.0 °F 99.3 °F 73.0 °F 55% 30.06 in 10.0 mi ESE 15.0 mph 25.3 mph N/A   Scattered Clouds
1:53 PM 90.0 °F 97.9 °F 73.0 °F 57% 30.06 in 10.0 mi ESE 16.1 mph 21.9 mph N/A   Scattered Clouds
2:53 PM 90.0 °F 97.9 °F 73.0 °F 57% 30.03 in 10.0 mi East 16.1 mph 23.0 mph N/A   Partly Cloudy
3:09 PM 89.6 °F 99.8 °F 75.2 °F 62% 30.02 in 10.0 mi East 16.1 mph 21.9 mph 0.00 in Rain Light Rain
3:25 PM 89.6 °F 98.2 °F 73.4 °F 59% 30.01 in 10.0 mi ESE 13.8 mph - 0.00 in   Mostly Cloudy
3:53 PM 90.0 °F 96.9 °F 72.0 °F 55% 30.01 in 10.0 mi ENE 15.0 mph - 0.00 in   Clear
4:53 PM 89.1 °F 96.0 °F 72.0 °F 57% 30.02 in 10.0 mi East 13.8 mph 23.0 mph N/A   Scattered Clouds
5:53 PM 88.0 °F 96.5 °F 73.9 °F 63% 30.01 in 10.0 mi East 13.8 mph - N/A   Partly Cloudy
6:53 PM 86.0 °F 93.8 °F 73.9 °F 67% 30.01 in 10.0 mi East 13.8 mph - N/A   Mostly Cloudy
7:53 PM 84.9 °F 93.3 °F 75.0 °F 72% 30.01 in 10.0 mi East 10.4 mph - N/A   Partly Cloudy
8:53 PM 84.0 °F 91.2 °F 73.9 °F 72% 30.03 in 10.0 mi East 10.4 mph - N/A   Partly Cloudy
9:53 PM 84.0 °F 91.2 °F 73.9 °F 72% 30.05 in 10.0 mi East 9.2 mph - N/A   Partly Cloudy
10:53 PM 82.9 °F 90.2 °F 75.0 °F 77% 30.07 in 10.0 mi North 3.5 mph - N/A   Scattered Clouds
11:53 PM 81.0 °F 85.8 °F 73.0 °F 77% 30.06 in 10.0 mi NNE 5.8 mph - N/A   Scattered Clouds